Track STARLINK-1739 now! 10-day predictions STARLINK-1739 is classified as:
1 46363U 20062AQ 21101.41393599 -.00001365 00000-0 -72822-4 0 9992 2 46363 53.0633 101.9164 0000953 80.5817 279.5279 15.06393028 34658